Weather History for KBTR - August, 2013

Change the Weather History Date:

Thursday, August 22, 2013

  Actual Average Record
Temperature  
Mean Temperature 83 °F 83 °F  
Max Temperature 92 °F 93 °F 100 °F (1980)
Min Temperature 73 °F 73 °F 61 °F (1940)
Degree Days  
Heating Degree Days 0 0  
Month to date heating degree days 0 0  
Since 1 June heating degree days 0 0  
Since 1 July heating degree days 0 0  
Cooling Degree Days 18 18  
Month to date cooling degree days 393 396  
Year to date cooling degree days 1832 2001  
Since 1 June cooling degree days 1409 1436  
Growing Degree Days 32 (Base 50)    
Moisture  
Dew Point 73 °F    
Average Humidity 76    
Maximum Humidity 100    
Minimum Humidity 52    
Precipitation  
Precipitation T in 0.19 in 2.37 in (1968)
Month to date precipitation 2.95 4.25  
Year to date precipitation 52.25 40.14  
Snow  
Snow 0.00 in - - ()
Month to date snowfall 0.0  
Since 1 June snowfall 0.0  
Since 1 July snowfall 0.0  
Snow Depth 0.00 in    
Sea Level Pressure  
Sea Level Pressure 30.04 in    
Wind  
Wind Speed 4 mph (NE)    
Max Wind Speed 15 mph    
Max Gust Speed 18 mph    
Visibility 10 miles    
Events Rain    
T = Trace of Precipitation, MM = Missing Value Source: NWS Daily Summary

Daily Weather History Graph

Daily Weather History Graph

Search for Another Location

Airport or City:

Trip Planner

Search our weather history database for the weather conditions in past years. The results will help you decide how hot, cold, wet, or windy it might be!

Date:

Astronomy

Aug. 22, 2013 Rise Set
Actual Time 6:35 AM CDT 7:38 PM CDT
Civil Twilight 6:10 AM CDT 8:03 PM CDT
Nautical Twilight 5:41 AM CDT 8:33 PM CDT
Astronomical Twilight 5:10 AM CDT 9:03 PM CDT
Moon 8:36 PM CDT (8/22) 8:12 AM CDT (8/22)
Length of Visible Light 13h 52m
Length of Day
13h 03m
Waning Gibbous, 96% of the Moon is Illuminated
Aug 22
Waning Gibbous
Aug 28
Last Quarter
Sep 5
New
Sep 12
First Quarter
Sep 19
Full

Hourly Weather History & Observations

Time (CDT) Temp. Heat Index Dew Point Humidity Pressure Visibility Wind Dir Wind Speed Gust Speed Precip Events Conditions
12:53 AM 75.0 °F - 73.9 °F 96% 30.09 in 10.0 mi ENE 3.5 mph - N/A   Partly Cloudy
1:53 AM 73.9 °F - 73.0 °F 97% 30.08 in 10.0 mi NE 3.5 mph - N/A   Clear
2:53 AM 73.9 °F - 73.0 °F 97% 30.06 in 9.0 mi Calm Calm - N/A   Clear
3:53 AM 73.9 °F - 73.0 °F 97% 30.06 in 9.0 mi NE 3.5 mph - N/A   Partly Cloudy
4:53 AM 73.0 °F - 72.0 °F 96% 30.06 in 10.0 mi NE 3.5 mph - N/A   Partly Cloudy
5:53 AM 73.0 °F - 72.0 °F 96% 30.06 in 10.0 mi Calm Calm - N/A   Clear
6:53 AM 73.0 °F - 72.0 °F 96% 30.07 in 8.0 mi NNE 4.6 mph - N/A   Partly Cloudy
7:53 AM 75.9 °F - 73.0 °F 91% 30.09 in 10.0 mi Calm Calm - N/A   Clear
8:53 AM 79.0 °F - 73.9 °F 84% 30.09 in 10.0 mi NNE 3.5 mph - N/A   Clear
9:53 AM 82.0 °F 88.6 °F 75.0 °F 79% 30.09 in 10.0 mi Variable 5.8 mph - N/A   Clear
10:53 AM 84.0 °F 91.2 °F 73.9 °F 72% 30.09 in 10.0 mi ENE 8.1 mph - N/A   Scattered Clouds
11:53 AM 87.1 °F 95.4 °F 73.9 °F 65% 30.09 in 10.0 mi NE 4.6 mph - N/A   Mostly Cloudy
12:53 PM 89.1 °F 97.0 °F 73.0 °F 59% 30.06 in 10.0 mi ESE 6.9 mph - N/A   Mostly Cloudy
1:53 PM 90.0 °F 99.0 °F 73.9 °F 59% 30.04 in 10.0 mi Variable 4.6 mph - N/A   Mostly Cloudy
2:53 PM 91.0 °F 98.2 °F 72.0 °F 53% 30.01 in 10.0 mi NNE 5.8 mph - N/A   Mostly Cloudy
3:53 PM 87.1 °F 94.5 °F 73.0 °F 63% 29.99 in 10.0 mi NNW 5.8 mph - 0.00 in Rain Light Rain
4:53 PM 89.1 °F 99.1 °F 75.0 °F 63% 29.98 in 10.0 mi North 3.5 mph - 0.00 in   Scattered Clouds
5:53 PM 89.1 °F 96.0 °F 72.0 °F 57% 29.97 in 10.0 mi East 8.1 mph - N/A   Scattered Clouds
6:53 PM 84.9 °F 91.4 °F 73.0 °F 67% 29.97 in 10.0 mi East 8.1 mph - N/A   Partly Cloudy
7:53 PM 82.9 °F 88.8 °F 73.0 °F 72% 29.97 in 10.0 mi Calm Calm - N/A   Partly Cloudy
8:53 PM 81.0 °F 86.2 °F 73.9 °F 79% 29.99 in 10.0 mi Calm Calm - N/A   Clear
9:53 PM 79.0 °F - 73.9 °F 84% 30.01 in 10.0 mi Calm Calm - N/A   Clear
10:53 PM 77.0 °F - 73.9 °F 90% 30.00 in 10.0 mi Calm Calm - N/A   Clear
11:53 PM 75.9 °F - 73.9 °F 94% 30.01 in 10.0 mi NE 3.5 mph - N/A   Scattered Clouds